Orbital Elements at Epoch 2459000.5 (2020-May-31.0) TDB
Reference: JPL 13 (heliocentric ecliptic J2000)
Element | Value | Uncertainty (1-sigma) | Units |
e | .0779628121014163 | 4.7186e-08 | |
a | 2.343228202905352 | 1.7769e-08 | au |
q | 2.160543542811503 | 1.137e-07 | au |
i | 7.231788366057349 | 5.4435e-06 | deg |
node | 124.8729187394122 | 4.2933e-05 | deg |
peri | 352.1810631010931 | 5.7668e-05 | deg |
M | 31.08759004281916 | 3.7831e-05 | deg |
tp | 2458887.362947256689 (2020-Feb-07.86294726) | 0.00013747 | TDB |
period | 1310.147841357038 3.59 | 1.4903e-05 4.08e-08 | d yr |
n | .2747781499430747 | 3.1256e-09 | deg/d |
Q | 2.525912862999201 | 1.9155e-08 | au |
|
| | Orbit Determination Parameters
Additional Information
|